Weather History for Everett, WA

Change the Weather History Date:

Monday, November 26, 2012

  Actual Average Record
Temperature  
Mean Temperature 40 °F -  
Max Temperature 46 °F 47 °F 66 °F (1950)
Min Temperature 34 °F 33 °F 0 °F (1993)
Degree Days  
Heating Degree Days 25    
Moisture  
Dew Point 32 °F    
Average Humidity 80    
Maximum Humidity 93    
Minimum Humidity 58    
Precipitation  
Precipitation 0.00 in - - ()
Sea Level Pressure  
Sea Level Pressure 30.13 in    
Wind  
Wind Speed 3 mph (NNE)    
Max Wind Speed 5 mph    
Max Gust Speed -    
Visibility 9 miles    
Events      
Averages and records for this station are not official NWS values.
T = Trace of Precipitation, MM = Missing Value Source: NWS Daily Summary

Daily Weather History Graph

Daily Weather History Graph

Search for Another Location

Airport:

Trip Planner

Search our weather history database for the weather conditions in past years. The results will help you decide how hot, cold, wet, or windy it might be!

Date:

Astronomy

Nov. 26, 2012 Rise Set
Actual Time 7:31 AM PST 4:21 PM PST
Civil Twilight 6:56 AM PST 4:56 PM PST
Nautical Twilight 6:18 AM PST 5:34 PM PST
Astronomical Twilight 5:41 AM PST 6:11 PM PST
Moon 3:20 PM PST (11/26) 5:42 AM PST (11/26)
Length of Visible Light 9h 59m
Length of Day
8h 49m
Waxing Gibbous, 97% of the Moon is Illuminated
Nov 26
Waxing Gibbous
Nov 28
Full
Dec 6
Last Quarter
Dec 13
New
Dec 19
First Quarter

Hourly Weather History & Observations

Time (PST) Temp. Windchill Dew Point Humidity Pressure Visibility Wind Dir Wind Speed Gust Speed Precip Events Conditions
12:53 AM 36.0 °F 33.3 °F 33.1 °F 89% 30.24 in 10.0 mi North 3.5 mph - N/A   Clear
1:53 AM 36.0 °F 33.3 °F 33.1 °F 89% 30.22 in 10.0 mi North 3.5 mph - N/A   Clear
2:18 AM 35.6 °F 32.8 °F 33.8 °F 93% 30.20 in 8.0 mi North 3.5 mph - N/A   Scattered Clouds
2:27 AM 35.6 °F 31.7 °F 33.8 °F 93% 30.19 in 5.0 mi North 4.6 mph - N/A   Mostly Cloudy
2:53 AM 36.0 °F 32.1 °F 34.0 °F 93% 30.19 in 6.0 mi North 4.6 mph - N/A   Overcast
3:16 AM 35.6 °F 31.7 °F 33.8 °F 93% 30.17 in 6.0 mi NNE 4.6 mph - N/A   Scattered Clouds
3:53 AM 34.0 °F 29.8 °F 30.9 °F 89% 30.19 in 10.0 mi North 4.6 mph - N/A   Clear
4:53 AM 35.1 °F 31.0 °F 32.0 °F 89% 30.19 in 10.0 mi North 4.6 mph - N/A   Clear
5:53 AM 35.1 °F 32.2 °F 32.0 °F 89% 30.18 in 10.0 mi North 3.5 mph - N/A   Clear
6:53 AM 35.1 °F 31.0 °F 32.0 °F 89% 30.17 in 10.0 mi North 4.6 mph - N/A   Clear
7:53 AM 34.0 °F 31.0 °F 30.9 °F 89% 30.15 in 10.0 mi NNE 3.5 mph - N/A   Clear
8:53 AM 36.0 °F 33.3 °F 30.0 °F 79% 30.13 in 10.0 mi NNE 3.5 mph - N/A   Clear
9:53 AM 39.0 °F - 30.9 °F 73% 30.14 in 10.0 mi Calm Calm - N/A   Clear
10:53 AM 41.0 °F - 32.0 °F 70% 30.14 in 10.0 mi Calm Calm - N/A   Clear
11:53 AM 43.0 °F - 30.9 °F 62% 30.12 in 10.0 mi Calm Calm - N/A   Clear
12:53 PM 44.1 °F 41.5 °F 33.1 °F 65% 30.10 in 10.0 mi North 4.6 mph - N/A   Clear
1:53 PM 46.0 °F 44.8 °F 33.1 °F 61% 30.08 in 10.0 mi North 3.5 mph - N/A   Clear
2:53 PM 45.0 °F 43.5 °F 30.9 °F 58% 30.07 in 10.0 mi NNE 3.5 mph - N/A   Clear
3:53 PM 42.1 °F 39.2 °F 33.1 °F 70% 30.08 in 10.0 mi North 4.6 mph - N/A   Clear
4:53 PM 39.9 °F 37.8 °F 34.0 °F 79% 30.08 in 10.0 mi NNE 3.5 mph - N/A   Clear
5:53 PM 39.0 °F 36.8 °F 33.1 °F 79% 30.07 in 10.0 mi NNE 3.5 mph - N/A   Clear
6:53 PM 39.0 °F - 33.1 °F 79% 30.07 in 10.0 mi Calm Calm - N/A   Clear
7:53 PM 39.0 °F 36.8 °F 33.1 °F 79% 30.07 in 10.0 mi North 3.5 mph - N/A   Clear
8:53 PM 37.0 °F - 32.0 °F 82% 30.08 in 10.0 mi Calm Calm - N/A   Clear
9:53 PM 39.9 °F 37.8 °F 30.0 °F 68% 30.07 in 10.0 mi East 3.5 mph - N/A   Clear
10:53 PM 37.9 °F - 30.0 °F 73% 30.08 in 10.0 mi Calm Calm - N/A   Clear
11:53 PM 36.0 °F - 30.9 °F 82% 30.09 in 10.0 mi Calm Calm - N/A   Clear